Showing default

SHIYAN 29, 65486

Orbit data source: Space-Track

SHIYAN 29, 65486 is a payload satellite owned by CNSA (CN) in GEO that was launched on Fri, 05 Sep 2025 UTC via a CHANG ZHENG 3C/YZ-1 launch vehicle from the Xichang Space Center, China (XSC). Payload-class satellites include a variety of spacecraft equipped with specific instruments for various scientific and technological missions. These include communications satellites like Starlink; space stations such as the ISS; scientific satellites like the Hubble; Earth observation satellites from companies like Planet Labs, Umbra, and HawkEye 360; GPS; miniature CubeSats for education and research; and military/defense satellites.

Not visible in the next 10 days
Identifier
65486, 2025-196A
Orbit
GEO
Country
Flag of CNCN / PRC
Related business
Manufacturer
IMI/CAS
Mission
Operational Defense Technology
Bus & Motor
SECM3000, AKM?
Mass
~1,150 kg wet, ~850 kg dry
Launch date (UTC)
2025-09-05 (10 months ago)
Launch vehicle
CHANG ZHENG 3C/YZ-1
Launch site
Xichang Space Center, China (XSC)
Object type
Payload
Rocket body
Debris
Shape & HBR
Box + 2 Pan, 1.1 m
Radar Cross Section
9.494 m², Large (>1 m²)

Expand to show TLE details & history
Last TLE update: 16 hours ago

TLE from 16 hours ago
0 SHIYAN 29
1 65486U 25196A   26178.04068013 -.00000277  00000-0  00000-0 0  9995
2 65486  28.8319  18.4110 0012755 175.0558 191.2555  1.00283395  2986
Epoch: 2026-06-27T00:58Z
TLE epoch observation values (Epoch: 2026-06-27T00:58:34.763Z)
Latitude
3.01616°
Longitude
94.11368°
Altitude
35,835.24 km
Speed
3.071 km/s
True Right ascension
01h 35m 40s
True Declination
3° 00' 47"
Sunlit
Object was in daylight at epoch
Visualization orbit readout
Latitude
Unknown
Longitude
Unknown
Altitude
Unknown
Speed
Unknown
Apparent Right ascension
Unknown
Apparent Declination
Unknown
Sunlit
N/A
Visualization observer readout
Local Sidereal Time
04:20:01
Azimuth
Unknown
Elevation
Unknown
Doppler factor
Unknown
Orbital elements
Apogee altitude
35,837.824 km
Perigee altitude
35,730.269 km
Semi-major axis
42,162.184 km
Eccentricity
0.00128
Inclination
28.8319°
RAAN
18.411°
Arg. of periapsis
175.0558°
True anomaly
191.22702°
Mean anomaly
191.2555°
Eccentric anomaly
191.24125°
Mean motion
0.2507 °/min
Orbital period
1,435.97 mins
BSTAR
0
Loading maneuver chart data...
Computing Atmospheric mass density...
Loading historical data...
Loading historical data...
Loading historical data...
Loading historical data...
Loading historical data...
Loading historical data...
Loading historical data...
Other satellites on launch #196 in the year 2025 (2025-09-05 UTC)

Documentation

Showing up to 5 results
|